Location: Bosmont
(49.7318°N, 3.8587°E)
Time: 17:48:26
(UTC+00:00)

Meteor 1-11 Rocket - Pass Details

Date: 27 February 2024
Orbit: 830 x 915 km, 81.2° (Epoch: 12 April)

Event Time Altitude Azimuth Distance (km) Brightness Sun altitude
Exits shadow 22:32:02 13° 3° (N) 2,387 6.4 -44.9°
Drops below altitude 10° 22:32:38 10° 5° (N) 2,602 6.7 -44.9°
Sets 22:35:12 0° 10° (N) 3,555 7.5 -45.1°
